M I D A S
Marine Information and Data Acquisition System
Tripno 454 of the Zeeleeuw from 2003-03-24 07:33:44 to 2003-03-24 16:04:33
Back to CruiseResearch ActivitiesStationsMapUnderway DataData graphs

EquipmentUnitsComments
TimeDGPSUTC
LatitudeDGPSDM.mWGS84
LongitudeDGPSDM.mWGS84
SpeedMeteo Stationm/sRelative wind speed
DirectionMeteo StationdegRelative wind direction
TemperatureMeteo Stationdeg CelciusAir temperature
PressureMeteo StationPaAtmospheric pressure
HumidityMeteo Station%Relative humidity
Missing or incorrect values are displayed as -999
Metereological data collected by the RV Zeeleeuw from 2003-03-24 07:33:44 to 2003-03-24 16:04:33
Time Latitude Longitude Speed Direction Temperature Pressure Humidity
2003-03-24 07:34 51°13.598 2°56.105 3.8 280 9.7 102400 54
2003-03-24 07:35 51°13.599 2°56.094 3.2 263 9.7 102390 53
2003-03-24 07:36 51°13.616 2°56.023 5.2 269 9.7 102400 54
2003-03-24 07:37 51°13.63 2°55.978 2.5 248 9.7 102390 54
2003-03-24 07:38 51°13.667 2°55.874 1.5 196 9.7 102400 54
2003-03-24 07:39 51°13.692 2°55.765 4 234 9.7 102390 54
2003-03-24 07:40 51°13.702 2°55.73 3.1 212 9.7 102390 54
2003-03-24 07:41 51°13.741 2°55.717 3.2 120 9.8 102390 54
2003-03-24 07:42 51°13.802 2°55.662 0.9 118 9.8 102390 54
2003-03-24 07:43 51°13.898 2°55.584 0.4 128 9.9 102390 54
2003-03-24 07:44 51°14.012 2°55.504 1.6 143 10.1 102390 53
2003-03-24 07:45 51°14.127 2°55.419 2.4 63 10.2 102390 53
2003-03-24 07:46 51°14.25 2°55.277 4.6 38 10.3 102390 51
2003-03-24 07:47 51°14.36 2°55.075 4.4 46 10.5 102380 51
2003-03-24 07:48 51°14.49 2°54.873 4.6 93 10.6 102370 50
2003-03-24 07:49 51°14.662 2°54.707 4.4 84 10.8 102370 51
2003-03-24 07:50 51°14.848 2°54.558 3.7 86 10.8 102370 50
2003-03-24 07:51 51°15.04 2°54.406 4.4 90 10.7 102370 52
2003-03-24 07:52 51°15.23 2°54.252 4.9 82 10.7 102370 53
2003-03-24 07:53 51°15.434 2°54.092 5 74 10.8 102370 53
2003-03-24 07:54 51°15.644 2°53.921 6 73 10.8 102370 54
2003-03-24 07:55 51°15.85 2°53.735 5.3 69 10.7 102380 54
2003-03-24 07:56 51°16.064 2°53.57 5.2 66 10.6 102380 55
2003-03-24 07:57 51°16.279 2°53.409 5.1 66 10.6 102380 55
2003-03-24 07:58 51°16.492 2°53.246 5.8 65 10.6 102380 57
2003-03-24 07:59 51°16.7 2°53.072 6.1 70 10.5 102380 57
2003-03-24 08:00 51°16.904 2°52.89 5.7 58 10.3 102370 58
2003-03-24 08:01 51°17.108 2°52.711 5.7 58 10.2 102380 59
2003-03-24 08:02 51°17.312 2°52.52 6.4 60 10.1 102380 60
2003-03-24 08:03 51°17.497 2°52.284 6.9 56 10 102370 61
2003-03-24 08:04 51°17.659 2°52.002 8.4 46 9.8 102370 61
2003-03-24 08:05 51°17.799 2°51.698 8.4 47 9.7 102360 62
2003-03-24 08:06 51°17.936 2°51.387 7.8 46 9.6 102360 63
2003-03-24 08:07 51°18.073 2°51.075 7.8 46 9.5 102360 64
2003-03-24 08:08 51°18.208 2°50.763 8.8 46 9.4 102360 64
2003-03-24 08:09 51°18.339 2°50.453 9.4 132 9.4 102360 64
2003-03-24 08:10 51°18.475 2°50.133 8.7 47 9.3 102360 65
2003-03-24 08:11 51°18.608 2°49.821 9.1 45 9.3 102360 66
2003-03-24 08:12 51°18.741 2°49.508 8.6 46 9.3 102370 66
2003-03-24 08:13 51°18.875 2°49.193 9.1 46 9.3 102370 66
2003-03-24 08:14 51°19.01 2°48.875 8.5 132 9.2 102360 66
2003-03-24 08:15 51°19.146 2°48.556 8.2 134 9.2 102360 66
2003-03-24 08:16 51°19.279 2°48.239 7.8 318 9.2 102360 66
2003-03-24 08:17 51°19.416 2°47.922 7.9 44 9.1 102370 67
2003-03-24 08:18 51°19.555 2°47.607 7.5 319 9.1 102370 67
2003-03-24 08:19 51°19.688 2°47.295 7.8 317 9 102370 68
2003-03-24 08:20 51°19.814 2°46.98 8.4 318 9 102370 68
2003-03-24 08:21 51°19.941 2°46.655 7.7 48 8.9 102360 68
2003-03-24 08:22 51°20.053 2°46.327 9.8 43 8.9 102360 68
2003-03-24 08:23 51°20.135 2°45.97 10.9 41 8.9 102360 68
2003-03-24 08:24 51°20.197 2°45.603 10.9 41 8.9 102360 68
2003-03-24 08:25 51°20.262 2°45.236 10.3 42 8.9 102350 68
2003-03-24 08:26 51°20.322 2°44.867 10.9 44 8.9 102350 69
2003-03-24 08:27 51°20.371 2°44.501 10.4 41 8.9 102350 69
2003-03-24 08:28 51°20.426 2°44.133 11.2 38 8.8 102350 69
2003-03-24 08:29 51°20.484 2°43.761 11.3 41 8.8 102350 69
2003-03-24 08:30 51°20.537 2°43.4 10.2 40 8.8 102340 69
2003-03-24 08:31 51°20.592 2°43.031 9.7 39 8.8 102350 70
2003-03-24 08:32 51°20.647 2°42.661 10.2 41 8.7 102350 70
2003-03-24 08:33 51°20.704 2°42.288 10.1 39 8.6 102340 71
2003-03-24 08:34 51°20.766 2°41.908 10.5 42 8.6 102340 72
2003-03-24 08:35 51°20.878 2°41.581 6.4 56 8.6 102350 73
2003-03-24 08:36 51°21.106 2°41.487 2.3 50 8.5 102370 73
2003-03-24 08:37 51°21.344 2°41.462 2.9 43 8.6 102370 74
2003-03-24 08:38 51°21.584 2°41.439 2.5 56 8.7 102370 73
2003-03-24 08:39 51°21.82 2°41.422 2.4 50 8.7 102370 73
2003-03-24 08:40 51°22.065 2°41.406 2.4 66 8.8 102370 73
2003-03-24 08:41 51°22.307 2°41.394 2.1 54 8.8 102370 73
2003-03-24 08:42 51°22.525 2°41.536 2.8 275 8.8 102370 72
2003-03-24 08:43 51°22.707 2°41.782 3.6 276 8.7 102360 73
2003-03-24 08:44 51°22.886 2°42.047 3.8 276 8.5 102360 74
2003-03-24 08:45 51°23.056 2°42.309 4.6 275 8.4 102360 74
2003-03-24 08:46 51°23.239 2°42.545 2.5 295 8.3 102360 75
2003-03-24 08:47 51°23.458 2°42.67 1.5 45 8.3 102360 75
2003-03-24 08:48 51°23.692 2°42.626 4.9 50 8.4 102360 75
2003-03-24 08:49 51°23.905 2°42.455 7 52 8.5 102350 75
2003-03-24 08:50 51°24.117 2°42.265 9.5 67 8.6 102350 74
2003-03-24 08:51 51°24.325 2°42.09 5.6 49 8.8 102350 71
2003-03-24 08:52 51°24.54 2°41.916 6.3 62 8.9 102350 71
2003-03-24 08:53 51°24.752 2°41.756 6.4 62 8.9 102350 71
2003-03-24 08:54 51°24.969 2°41.598 7 63 9 102350 71
2003-03-24 08:55 51°25.18 2°41.439 6.6 67 9 102350 70
2003-03-24 08:56 51°25.396 2°41.277 7.7 65 9 102350 70
2003-03-24 08:57 51°25.617 2°41.114 7.9 58 9.1 102340 70
2003-03-24 08:58 51°25.803 2°40.878 9.8 57 9.1 102330 69
2003-03-24 08:59 51°25.954 2°40.586 11.7 55 9.1 102330 69
2003-03-24 09:00 51°26.105 2°40.298 10.7 49 9.2 102330 67
2003-03-24 09:01 51°26.257 2°40.003 10.5 55 9.3 102330 67
2003-03-24 09:02 51°26.413 2°39.706 10 50 9.3 102340 67
2003-03-24 09:03 51°26.547 2°39.404 12.4 47 9.3 102340 66
2003-03-24 09:04 51°26.65 2°39.064 11.3 41 9.4 102330 67
2003-03-24 09:05 51°26.755 2°38.721 12.8 43 9.4 102330 67
2003-03-24 09:06 51°26.856 2°38.394 11.8 318 9.4 102330 67
2003-03-24 09:07 51°26.961 2°38.051 11.4 132 9.5 102330 66
2003-03-24 09:08 51°27.07 2°37.708 12 42 9.4 102330 67
2003-03-24 09:09 51°27.177 2°37.372 10.4 39 9.4 102340 68
2003-03-24 09:10 51°27.283 2°37.035 11.2 40 9.3 102340 69
2003-03-24 09:11 51°27.39 2°36.696 11.6 40 9.2 102350 69
2003-03-24 09:12 51°27.494 2°36.359 10.4 38 9.2 102340 69
2003-03-24 09:13 51°27.598 2°36.024 10.9 38 9.2 102350 70
2003-03-24 09:14 51°27.702 2°35.68 10.2 38 9.2 102350 70
2003-03-24 09:15 51°27.824 2°35.364 10.3 37 9.1 102360 71
2003-03-24 09:16 51°27.981 2°35.075 9.1 40 9.1 102370 71
2003-03-24 09:17 51°28.164 2°34.842 7.5 45 9.1 102370 71
2003-03-24 09:18 51°28.389 2°34.71 5.6 131 9.1 102380 72
2003-03-24 09:19 51°28.624 2°34.73 2.7 20 9.1 102390 72
2003-03-24 09:20 51°28.831 2°34.915 2.7 350 9.2 102400 72
2003-03-24 09:21 51°28.999 2°35.18 2.9 334 9.2 102400 72
2003-03-24 09:22 51°29.15 2°35.469 3.1 328 9.1 102400 72
2003-03-24 09:23 51°29.282 2°35.778 3.5 321 9.1 102400 72
2003-03-24 09:24 51°29.396 2°36.103 3.6 328 9 102400 73
2003-03-24 09:25 51°29.507 2°36.429 4.1 327 8.9 102400 73
2003-03-24 09:26 51°29.609 2°36.75 3.3 325 8.9 102400 73
2003-03-24 09:27 51°29.715 2°37.074 3.5 326 8.9 102400 74
2003-03-24 09:28 51°29.818 2°37.397 3.1 324 8.8 102400 74
2003-03-24 09:29 51°29.92 2°37.722 3.3 324 8.9 102400 73
2003-03-24 09:30 51°30.026 2°38.049 3.3 330 8.9 102400 73
2003-03-24 09:31 51°30.132 2°38.377 2.9 320 8.8 102400 73
2003-03-24 09:32 51°30.212 2°38.643 2.9 248 8.8 102400 73
2003-03-24 09:33 51°30.226 2°38.782 4.2 250 8.8 102400 73
2003-03-24 09:34 51°30.219 2°38.867 5 251 8.8 102400 73
2003-03-24 09:35 51°30.202 2°38.955 4.6 267 8.8 102400 73
2003-03-24 09:36 51°30.26 2°39.205 2.7 318 8.8 102400 73
2003-03-24 09:37 51°30.435 2°39.42 2.5 30 8.8 102400 74
2003-03-24 09:38 51°30.652 2°39.559 2.5 37 8.9 102390 74
2003-03-24 09:39 51°30.874 2°39.682 2.6 51 9 102390 73
2003-03-24 09:40 51°31.098 2°39.811 1.7 64 9.2 102390 73
2003-03-24 09:41 51°31.327 2°39.926 2.6 76 9.3 102390 72
2003-03-24 09:42 51°31.563 2°39.972 4.9 69 9.4 102380 71
2003-03-24 09:43 51°31.802 2°39.926 5.2 69 9.5 102370 70
2003-03-24 09:44 51°32.043 2°39.895 4.9 70 9.5 102370 71
2003-03-24 09:45 51°32.285 2°39.869 5.4 71 9.4 102370 71
2003-03-24 09:46 51°32.52 2°39.843 4.7 68 9.4 102370 71
2003-03-24 09:47 51°32.754 2°39.82 5.1 62 9.4 102370 71
2003-03-24 09:48 51°32.986 2°39.798 5.2 55 9.5 102380 71
2003-03-24 09:49 51°33.218 2°39.773 5.5 54 9.5 102370 71
2003-03-24 09:50 51°33.45 2°39.746 5.7 47 9.5 102380 71
2003-03-24 09:51 51°33.683 2°39.716 6.1 45 9.5 102380 71
2003-03-24 09:52 51°33.917 2°39.678 6.1 131 9.6 102380 71
2003-03-24 09:53 51°34.155 2°39.642 5.9 47 9.6 102380 70
2003-03-24 09:54 51°34.395 2°39.607 5.4 46 9.7 102380 70
2003-03-24 09:55 51°34.631 2°39.575 5.2 45 9.7 102380 70
2003-03-24 09:56 51°34.865 2°39.541 6.2 51 9.8 102380 70
2003-03-24 09:57 51°35.101 2°39.507 5.7 47 9.8 102380 70
2003-03-24 09:58 51°35.336 2°39.477 6.1 52 9.8 102390 70
2003-03-24 09:59 51°35.568 2°39.444 5.8 50 9.9 102380 69
2003-03-24 10:00 51°35.802 2°39.417 5.7 58 9.9 102380 69
2003-03-24 10:01 51°36.036 2°39.407 4.8 55 9.9 102380 69
2003-03-24 10:02 51°36.268 2°39.413 4 45 9.9 102370 69
2003-03-24 10:03 51°36.5 2°39.433 4.2 66 10 102370 69
2003-03-24 10:04 51°36.733 2°39.457 3.9 70 10 102370 69
2003-03-24 10:05 51°36.964 2°39.48 3.5 71 10 102360 69
2003-03-24 10:06 51°37.19 2°39.549 3.2 61 10 102370 69
2003-03-24 10:07 51°37.403 2°39.664 1.3 112 10 102370 69
2003-03-24 10:08 51°37.616 2°39.823 2.1 98 10.1 102370 69
2003-03-24 10:09 51°37.822 2°39.978 1.6 89 10.1 102370 69
2003-03-24 10:10 51°38.016 2°40.157 0.7 151 10.1 102370 69
2003-03-24 10:11 51°38.161 2°40.437 4.1 260 10.1 102370 68
2003-03-24 10:12 51°38.222 2°40.775 6.2 267 10 102360 69
2003-03-24 10:13 51°38.258 2°41.122 5.7 269 9.7 102370 71
2003-03-24 10:14 51°38.297 2°41.47 6.4 272 9.5 102370 72
2003-03-24 10:15 51°38.29 2°41.817 8 279 9.4 102370 72
2003-03-24 10:16 51°38.193 2°42.147 10.2 294 9.3 102360 73
2003-03-24 10:17 51°38.071 2°42.447 8.9 291 9.2 102360 73
2003-03-24 10:18 51°37.966 2°42.779 8.1 285 9.2 102350 73
2003-03-24 10:19 51°37.878 2°43.114 7.6 293 9.1 102350 73
2003-03-24 10:20 51°37.799 2°43.448 6.9 282 9.1 102360 74
2003-03-24 10:21 51°37.785 2°43.813 5 271 9.1 102360 74
2003-03-24 10:22 51°37.851 2°44.156 2.9 258 9.1 102370 74
2003-03-24 10:23 51°37.972 2°44.458 0.4 208 9.1 102370 74
2003-03-24 10:24 51°38.148 2°44.68 1.8 82 9.3 102380 74
2003-03-24 10:25 51°38.341 2°44.867 2.5 75 9.4 102380 74
2003-03-24 10:26 51°38.538 2°45.042 2.3 77 9.5 102380 73
2003-03-24 10:27 51°38.736 2°45.213 2.7 70 9.6 102370 72
2003-03-24 10:28 51°38.951 2°45.322 5.6 68 9.7 102370 72
2003-03-24 10:29 51°39.17 2°45.279 8.2 52 9.7 102360 71
2003-03-24 10:30 51°39.359 2°45.067 11.7 42 9.7 102350 71
2003-03-24 10:31 51°39.495 2°44.765 12.4 41 9.7 102330 71
2003-03-24 10:32 51°39.633 2°44.461 11.5 39 9.7 102330 72
2003-03-24 10:33 51°39.774 2°44.164 12.1 37 9.6 102330 72
2003-03-24 10:34 51°39.897 2°43.845 13.3 37 9.6 102320 72
2003-03-24 10:35 51°40.032 2°43.536 13.3 41 9.6 102330 73
2003-03-24 10:36 51°40.164 2°43.223 12.9 35 9.5 102320 73
2003-03-24 10:37 51°40.294 2°42.914 12.6 38 9.5 102320 73
2003-03-24 10:38 51°40.425 2°42.606 12.9 39 9.5 102320 73
2003-03-24 10:39 51°40.557 2°42.298 14.4 42 9.5 102320 73
2003-03-24 10:40 51°40.689 2°41.986 13.2 44 9.5 102320 74
2003-03-24 10:41 51°40.824 2°41.67 13.7 45 9.4 102320 74
2003-03-24 10:42 51°40.962 2°41.364 13.2 41 9.4 102330 74
2003-03-24 10:43 51°41.098 2°41.055 14 38 9.4 102330 74
2003-03-24 10:44 51°41.235 2°40.746 13 34 9.4 102340 75
2003-03-24 10:45 51°41.37 2°40.441 12.6 35 9.3 102340 75
2003-03-24 10:46 51°41.505 2°40.137 11.7 33 9.3 102350 75
2003-03-24 10:47 51°41.641 2°39.836 12.5 38 9.3 102350 76
2003-03-24 10:48 51°41.776 2°39.535 12 34 9.2 102350 76
2003-03-24 10:49 51°41.911 2°39.234 12.1 35 9.2 102360 76
2003-03-24 10:50 51°42.045 2°38.931 12.8 36 9.2 102350 77
2003-03-24 10:51 51°42.177 2°38.633 12.1 39 9.1 102350 77
2003-03-24 10:52 51°42.31 2°38.319 12.3 35 9.1 102350 78
2003-03-24 10:53 51°42.391 2°37.968 13.6 18 9.1 102350 78
2003-03-24 10:54 51°42.355 2°37.602 15.7 6 9.1 102350 78
2003-03-24 10:55 51°42.276 2°37.242 14 359 9.1 102350 78
2003-03-24 10:56 51°42.147 2°36.924 15.9 354 9.1 102350 78
2003-03-24 10:57 51°41.996 2°36.613 15.6 354 9.1 102360 79
2003-03-24 10:58 51°41.838 2°36.317 15.8 354 9.1 102350 79
2003-03-24 10:59 51°41.679 2°36.021 14.6 351 9.1 102360 79
2003-03-24 11:00 51°41.517 2°35.722 15.8 346 9.1 102350 79
2003-03-24 11:01 51°41.351 2°35.436 15.7 351 9.1 102350 79
2003-03-24 11:02 51°41.184 2°35.151 14.8 348 9.1 102360 79
2003-03-24 11:03 51°41.016 2°34.865 15.6 352 9.1 102350 79
2003-03-24 11:04 51°40.849 2°34.58 14.5 353 9.1 102350 79
2003-03-24 11:05 51°40.68 2°34.294 15.3 352 9.1 102340 80
2003-03-24 11:06 51°40.512 2°34.006 15.1 352 9 102340 80
2003-03-24 11:07 51°40.346 2°33.724 14.9 354 9 102340 80
2003-03-24 11:08 51°40.172 2°33.439 14.5 353 9 102340 80
2003-03-24 11:09 51°39.998 2°33.16 15.1 350 9 102340 80
2003-03-24 11:10 51°39.82 2°32.892 14.2 349 9 102350 80
2003-03-24 11:11 51°39.643 2°32.625 14 352 9 102340 80
2003-03-24 11:12 51°39.467 2°32.353 15 350 9 102330 80
2003-03-24 11:13 51°39.289 2°32.082 14.5 352 9 102350 80
2003-03-24 11:14 51°39.111 2°31.812 14.1 350 9 102340 80
2003-03-24 11:15 51°38.927 2°31.549 14.8 350 8.9 102340 81
2003-03-24 11:16 51°38.747 2°31.284 13.4 349 8.9 102340 81
2003-03-24 11:17 51°38.566 2°31.016 14.1 351 8.9 102340 81
2003-03-24 11:18 51°38.382 2°30.75 13.8 346 8.9 102340 81
2003-03-24 11:19 51°38.196 2°30.488 14.2 348 8.9 102330 81
2003-03-24 11:20 51°38.01 2°30.225 14.2 347 8.9 102340 81
2003-03-24 11:21 51°37.823 2°29.964 14.3 347 8.9 102330 82
2003-03-24 11:22 51°37.635 2°29.704 14.2 349 8.9 102330 82
2003-03-24 11:23 51°37.445 2°29.444 15.6 348 8.9 102340 82
2003-03-24 11:24 51°37.253 2°29.182 15.1 347 8.9 102340 82
2003-03-24 11:25 51°37.062 2°28.927 14.8 350 8.9 102350 82
2003-03-24 11:26 51°36.87 2°28.679 14.9 347 8.9 102350 83
2003-03-24 11:27 51°36.675 2°28.429 15.2 347 8.9 102340 83
2003-03-24 11:28 51°36.476 2°28.179 15.5 348 8.8 102350 83
2003-03-24 11:29 51°36.286 2°27.944 12.6 350 8.9 102350 83
2003-03-24 11:30 51°36.191 2°27.787 9.9 6 8.8 102370 83
2003-03-24 11:31 51°36.152 2°27.672 9 20 8.9 102370 83
2003-03-24 11:32 51°36.114 2°27.553 10.6 358 8.9 102370 83
2003-03-24 11:33 51°35.98 2°27.396 13.1 348 8.9 102360 83
2003-03-24 11:34 51°35.847 2°27.243 10.3 344 8.8 102370 83
2003-03-24 11:35 51°35.755 2°27.142 9.7 344 8.8 102370 83
2003-03-24 11:36 51°35.688 2°27.068 8.5 343 8.8 102380 83
2003-03-24 11:37 51°35.636 2°27.018 7.7 334 8.8 102370 83
2003-03-24 11:38 51°35.542 2°26.926 12.8 350 8.8 102360 83
2003-03-24 11:39 51°35.428 2°26.77 9.7 358 8.8 102370 84
2003-03-24 11:40 51°35.368 2°26.661 8.6 6 8.8 102380 84
2003-03-24 11:41 51°35.296 2°26.54 11.9 345 8.9 102370 84
2003-03-24 11:42 51°35.118 2°26.337 11 350 8.9 102360 84
2003-03-24 11:43 51°34.995 2°26.184 10.8 349 8.8 102370 84
2003-03-24 11:44 51°34.848 2°26.022 11.8 349 8.8 102370 84
2003-03-24 11:45 51°34.743 2°25.902 8.5 346 8.7 102380 84
2003-03-24 11:46 51°34.669 2°25.836 7.5 338 8.7 102380 84
2003-03-24 11:47 51°34.609 2°25.799 6.1 323 8.6 102380 84
2003-03-24 11:48 51°34.528 2°25.774 9.6 329 8.5 102380 85
2003-03-24 11:49 51°34.362 2°25.706 11.6 339 8.4 102370 85
2003-03-24 11:50 51°34.167 2°25.547 12.3 344 8.5 102370 86
2003-03-24 11:51 51°33.974 2°25.341 12.2 349 8.5 102380 86
2003-03-24 11:52 51°33.785 2°25.119 12.5 348 8.5 102380 86
2003-03-24 11:53 51°33.598 2°24.897 12.4 348 8.6 102370 86
2003-03-24 11:54 51°33.408 2°24.686 12 347 8.7 102390 86
2003-03-24 11:55 51°33.216 2°24.475 13 346 8.6 102380 85
2003-03-24 11:56 51°33.024 2°24.264 13 347 8.7 102380 85
2003-03-24 11:57 51°32.836 2°24.056 12.3 348 8.7 102390 85
2003-03-24 11:58 51°32.629 2°23.894 12.3 333 8.7 102380 85
2003-03-24 11:59 51°32.41 2°23.912 10.8 315 8.6 102370 85
2003-03-24 12:00 51°32.233 2°24.083 7.7 296 8.5 102390 85
2003-03-24 12:01 51°32.139 2°24.214 5 256 8.4 102410 86
2003-03-24 12:02 51°32.1 2°24.304 3.8 224 8.3 102410 86
2003-03-24 12:03 51°32.085 2°24.363 4.1 205 8.4 102420 87
2003-03-24 12:04 51°32.081 2°24.403 4 191 8.4 102420 87
2003-03-24 12:05 51°32.078 2°24.428 2.5 163 8.4 102420 87
2003-03-24 12:06 51°32.077 2°24.443 3.7 164 8.6 102420 87
2003-03-24 12:07 51°32.083 2°24.456 2.4 168 8.7 102420 87
2003-03-24 12:08 51°32.106 2°24.566 3.4 244 8.8 102420 87
2003-03-24 12:09 51°32.058 2°24.749 6.4 290 8.8 102420 86
2003-03-24 12:10 51°31.908 2°24.895 8.4 304 8.6 102410 86
2003-03-24 12:11 51°31.716 2°25.052 9.7 312 8.5 102410 86
2003-03-24 12:12 51°31.495 2°25.184 9.9 315 8.4 102400 86
2003-03-24 12:13 51°31.269 2°25.323 10.8 316 8.3 102400 87
2003-03-24 12:14 51°31.043 2°25.467 10.1 314 8.3 102390 87
2003-03-24 12:15 51°30.814 2°25.609 10.6 307 8.2 102390 87
2003-03-24 12:16 51°30.585 2°25.757 10.3 309 8.2 102390 87
2003-03-24 12:17 51°30.358 2°25.909 9.8 313 8.2 102390 87
2003-03-24 12:18 51°30.134 2°26.069 10.1 310 8.2 102390 87
2003-03-24 12:19 51°29.91 2°26.224 10.6 312 8.2 102390 88
2003-03-24 12:20 51°29.684 2°26.378 11.4 312 8.2 102380 88
2003-03-24 12:21 51°29.492 2°26.492 8.8 303 8.3 102390 88
2003-03-24 12:22 51°29.351 2°26.572 9.1 307 8.3 102390 88
2003-03-24 12:23 51°29.171 2°26.64 9.8 314 8.3 102390 88
2003-03-24 12:24 51°28.984 2°26.667 10.5 310 8.3 102390 88
2003-03-24 12:25 51°28.794 2°26.684 10.2 309 8.3 102390 88
2003-03-24 12:26 51°28.599 2°26.678 10.3 317 8.3 102390 88
2003-03-24 12:27 51°28.407 2°26.637 11.7 326 8.3 102390 88
2003-03-24 12:28 51°28.219 2°26.545 12.1 328 8.4 102380 88
2003-03-24 12:29 51°28.078 2°26.475 9.6 317 8.4 102380 88
2003-03-24 12:30 51°27.987 2°26.436 10.4 310 8.5 102380 87
2003-03-24 12:31 51°27.887 2°26.406 10.6 313 8.5 102380 87
2003-03-24 12:32 51°27.733 2°26.363 11.2 322 8.5 102380 87
2003-03-24 12:33 51°27.554 2°26.306 13.1 322 8.5 102370 87
2003-03-24 12:34 51°27.426 2°26.256 10.6 323 8.5 102380 87
2003-03-24 12:35 51°27.349 2°26.197 10 332 8.5 102390 87
2003-03-24 12:36 51°27.231 2°26.133 12.2 323 8.6 102380 87
2003-03-24 12:37 51°27.055 2°26.097 10.9 312 8.6 102380 87
2003-03-24 12:38 51°26.936 2°26.072 10.8 320 8.6 102380 87
2003-03-24 12:39 51°26.778 2°26.023 10.9 320 8.5 102380 87
2003-03-24 12:40 51°26.59 2°25.974 11.8 319 8.5 102370 87
2003-03-24 12:41 51°26.398 2°25.925 13.1 322 8.5 102370 87
2003-03-24 12:42 51°26.198 2°25.884 11.8 317 8.5 102370 87
2003-03-24 12:43 51°26.019 2°25.824 10.5 313 8.5 102380 87
2003-03-24 12:44 51°25.908 2°25.781 9.3 309 8.5 102380 87
2003-03-24 12:45 51°25.829 2°25.739 9 308 8.4 102390 87
2003-03-24 12:46 51°25.768 2°25.7 8.5 299 8.5 102390 88
2003-03-24 12:47 51°25.718 2°25.672 8.3 297 8.5 102380 88
2003-03-24 12:48 51°25.672 2°25.653 8.5 296 8.5 102380 88
2003-03-24 12:49 51°25.641 2°25.625 8.4 288 8.5 102380 88
2003-03-24 12:50 51°25.611 2°25.604 8.2 283 8.5 102380 88
2003-03-24 12:51 51°25.582 2°25.585 7.1 291 8.5 102380 88
2003-03-24 12:52 51°25.513 2°25.561 10.2 310 8.5 102380 88
2003-03-24 12:53 51°25.407 2°25.597 9.4 263 8.5 102360 88
2003-03-24 12:54 51°25.291 2°25.747 10.7 278 8.5 102370 88
2003-03-24 12:55 51°25.164 2°25.925 9.7 277 8.5 102370 88
2003-03-24 12:56 51°25.038 2°26.108 8.6 278 8.5 102380 88
2003-03-24 12:57 51°24.915 2°26.295 9.5 274 8.5 102380 88
2003-03-24 12:58 51°24.796 2°26.487 9.4 275 8.5 102380 88
2003-03-24 12:59 51°24.675 2°26.678 9 276 8.5 102380 88
2003-03-24 13:00 51°24.556 2°26.868 9.5 278 8.5 102380 88
2003-03-24 13:01 51°24.438 2°27.06 9.1 278 8.5 102380 88
2003-03-24 13:02 51°24.318 2°27.252 7.8 277 8.5 102380 88
2003-03-24 13:03 51°24.199 2°27.437 9.6 275 8.5 102370 88
2003-03-24 13:04 51°24.078 2°27.618 8.7 278 8.5 102380 88
2003-03-24 13:05 51°23.955 2°27.803 8.6 278 8.5 102370 87
2003-03-24 13:06 51°23.833 2°27.99 10.9 273 8.5 102380 87
2003-03-24 13:07 51°23.716 2°28.18 9 275 8.5 102380 87
2003-03-24 13:08 51°23.606 2°28.376 8.5 278 8.5 102380 87
2003-03-24 13:09 51°23.499 2°28.578 9.6 275 8.5 102380 87
2003-03-24 13:10 51°23.394 2°28.781 8.3 278 8.5 102380 87
2003-03-24 13:11 51°23.289 2°28.985 9 277 8.5 102380 87
2003-03-24 13:12 51°23.184 2°29.188 8.1 279 8.5 102390 87
2003-03-24 13:13 51°23.078 2°29.383 9 274 8.4 102380 88
2003-03-24 13:14 51°22.974 2°29.581 8.8 281 8.4 102380 88
2003-03-24 13:15 51°22.87 2°29.78 10.8 271 8.4 102380 88
2003-03-24 13:16 51°22.767 2°29.981 10.9 275 8.5 102380 88
2003-03-24 13:17 51°22.667 2°30.181 8.1 278 8.5 102380 88
2003-03-24 13:18 51°22.566 2°30.381 8.7 280 8.5 102380 88
2003-03-24 13:19 51°22.465 2°30.582 8 277 8.5 102390 88
2003-03-24 13:20 51°22.363 2°30.781 7.3 278 8.4 102390 88
2003-03-24 13:21 51°22.264 2°30.983 7.4 277 8.4 102390 88
2003-03-24 13:22 51°22.169 2°31.189 7.1 278 8.4 102400 88
2003-03-24 13:23 51°22.074 2°31.394 7.2 279 8.4 102400 88
2003-03-24 13:24 51°21.98 2°31.601 6.9 281 8.4 102390 88
2003-03-24 13:25 51°21.885 2°31.809 6.8 291 8.3 102400 88
2003-03-24 13:26 51°21.788 2°32.019 5.9 281 8.4 102400 88
2003-03-24 13:27 51°21.69 2°32.229 5.7 283 8.3 102400 88
2003-03-24 13:28 51°21.59 2°32.443 6.9 282 8.3 102410 88
2003-03-24 13:29 51°21.487 2°32.66 7.1 283 8.3 102390 88
2003-03-24 13:30 51°21.388 2°32.884 6.5 283 8.3 102390 88
2003-03-24 13:31 51°21.289 2°33.109 7 284 8.3 102390 88
2003-03-24 13:32 51°21.19 2°33.33 6.2 283 8.3 102390 89
2003-03-24 13:33 51°21.113 2°33.459 6.8 274 8.3 102390 89
2003-03-24 13:34 51°21.036 2°33.559 6.5 276 8.3 102400 89
2003-03-24 13:35 51°20.952 2°33.763 6.2 286 8.3 102390 89
2003-03-24 13:36 51°20.876 2°34.033 6 271 8.3 102390 89
2003-03-24 13:37 51°20.847 2°34.356 4.5 282 8.3 102390 89
2003-03-24 13:38 51°20.816 2°34.691 4.5 283 8.4 102400 89
2003-03-24 13:39 51°20.78 2°34.931 6.1 249 8.4 102400 89
2003-03-24 13:40 51°20.732 2°35.031 6.8 242 8.5 102390 89
2003-03-24 13:41 51°20.694 2°35.199 5 249 8.6 102390 89
2003-03-24 13:42 51°20.662 2°35.441 5.5 252 8.6 102400 88
2003-03-24 13:43 51°20.631 2°35.693 5.5 252 8.7 102400 88
2003-03-24 13:44 51°20.592 2°35.944 6.2 249 8.7 102400 88
2003-03-24 13:45 51°20.551 2°36.196 6.4 252 8.7 102400 88
2003-03-24 13:46 51°20.511 2°36.449 6.4 253 8.7 102400 87
2003-03-24 13:47 51°20.47 2°36.7 5.5 254 8.7 102400 87
2003-03-24 13:48 51°20.429 2°36.955 5.2 261 8.8 102400 87
2003-03-24 13:49 51°20.39 2°37.207 5.7 251 8.8 102400 86
2003-03-24 13:50 51°20.348 2°37.359 6.4 249 8.8 102400 86
2003-03-24 13:51 51°20.301 2°37.475 6 242 8.8 102400 86
2003-03-24 13:52 51°20.268 2°37.691 5.5 267 8.8 102400 85
2003-03-24 13:53 51°20.226 2°37.978 5.9 274 8.8 102400 85
2003-03-24 13:54 51°20.196 2°38.302 4.5 268 8.8 102400 85
2003-03-24 13:55 51°20.202 2°38.643 4 279 8.8 102400 84
2003-03-24 13:56 51°20.213 2°38.997 3.5 284 8.8 102400 84
2003-03-24 13:57 51°20.22 2°39.348 4.5 274 8.8 102410 84
2003-03-24 13:58 51°20.218 2°39.702 4.7 273 8.8 102410 84
2003-03-24 13:59 51°20.212 2°39.992 4.3 242 8.8 102410 83
2003-03-24 14:00 51°20.21 2°40.22 3.6 241 8.9 102400 83
2003-03-24 14:01 51°20.204 2°40.478 3.7 243 8.9 102400 83
2003-03-24 14:02 51°20.202 2°40.744 3.6 247 8.9 102400 83
2003-03-24 14:03 51°20.199 2°41.026 3.5 251 8.9 102400 83
2003-03-24 14:04 51°20.193 2°41.305 3.5 246 9 102400 82
2003-03-24 14:05 51°20.187 2°41.576 3.9 238 9 102400 82
2003-03-24 14:06 51°20.182 2°41.847 3.4 247 9 102400 82
2003-03-24 14:07 51°20.176 2°42.127 4 247 9 102400 82
2003-03-24 14:08 51°20.172 2°42.406 4.3 238 9 102400 82
2003-03-24 14:09 51°20.161 2°42.676 4.4 243 9 102400 82
2003-03-24 14:10 51°20.15 2°42.938 5.3 227 9 102400 82
2003-03-24 14:11 51°20.126 2°43.109 7.1 236 9 102400 82
2003-03-24 14:12 51°20.089 2°43.198 7.7 233 9 102390 82
2003-03-24 14:13 51°20.058 2°43.349 4.9 220 9 102390 82
2003-03-24 14:14 51°20.056 2°43.592 4.1 230 9 102400 82
2003-03-24 14:15 51°20.055 2°43.882 4.1 233 9 102400 81
2003-03-24 14:16 51°20.054 2°44.216 3.5 264 9 102400 81
2003-03-24 14:17 51°20.054 2°44.574 4.1 265 9 102390 80
2003-03-24 14:18 51°20.049 2°44.877 4.2 240 9 102400 80
2003-03-24 14:19 51°20.03 2°45.056 4 242 9 102390 80
2003-03-24 14:20 51°20.035 2°45.314 3.6 232 9 102390 79
2003-03-24 14:21 51°20.039 2°45.592 3.4 255 9.1 102390 79
2003-03-24 14:22 51°20.039 2°45.873 3.7 249 9.1 102390 79
2003-03-24 14:23 51°20.037 2°46.157 3.7 237 9.1 102390 79
2003-03-24 14:24 51°20.022 2°46.44 4.7 259 9.1 102400 78
2003-03-24 14:25 51°19.996 2°46.718 5.3 254 9.2 102400 78
2003-03-24 14:26 51°19.97 2°47 5 243 9.2 102400 77
2003-03-24 14:27 51°19.945 2°47.272 4.5 250 9.2 102400 77
2003-03-24 14:28 51°19.92 2°47.557 4.8 249 9.3 102390 76
2003-03-24 14:29 51°19.897 2°47.835 4.5 254 9.3 102400 76
2003-03-24 14:30 51°19.875 2°48.111 4.5 249 9.3 102390 76
2003-03-24 14:31 51°19.854 2°48.384 4.5 251 9.4 102400 76
2003-03-24 14:32 51°19.832 2°48.668 4 250 9.4 102390 75
2003-03-24 14:33 51°19.81 2°48.948 4.7 253 9.4 102400 75
2003-03-24 14:34 51°19.788 2°49.231 4.5 246 9.5 102400 74
2003-03-24 14:35 51°19.765 2°49.512 4.6 247 9.5 102390 74
2003-03-24 14:36 51°19.741 2°49.802 4.8 252 9.6 102400 73
2003-03-24 14:37 51°19.719 2°50.086 4.6 243 9.6 102400 73
2003-03-24 14:38 51°19.698 2°50.376 5.2 245 9.6 102390 72
2003-03-24 14:39 51°19.674 2°50.658 5.4 252 9.7 102390 72
2003-03-24 14:40 51°19.65 2°50.946 4.8 241 9.7 102390 71
2003-03-24 14:41 51°19.625 2°51.239 4.4 246 9.7 102390 71
2003-03-24 14:42 51°19.6 2°51.526 5 242 9.7 102390 71
2003-03-24 14:43 51°19.58 2°51.807 3.2 238 9.7 102390 70
2003-03-24 14:44 51°19.605 2°52.091 2.5 212 9.8 102390 70
2003-03-24 14:45 51°19.648 2°52.366 2.9 213 9.8 102390 70
2003-03-24 14:46 51°19.684 2°52.645 3.2 223 9.9 102390 69
2003-03-24 14:47 51°19.723 2°52.93 3.4 208 9.9 102390 69
2003-03-24 14:48 51°19.761 2°53.212 2.5 225 10 102390 68
2003-03-24 14:49 51°19.798 2°53.495 2.3 226 10 102390 68
2003-03-24 14:50 51°19.834 2°53.774 2.6 229 10 102390 68
2003-03-24 14:51 51°19.866 2°54.064 3.1 228 10 102390 68
2003-03-24 14:52 51°19.92 2°54.336 3.8 126 10 102390 68
2003-03-24 14:53 51°20.068 2°54.398 9.6 57 10 102390 68
2003-03-24 14:54 51°20.156 2°54.213 13 15 10 102350 69
2003-03-24 14:55 51°20.083 2°54.018 11.9 327 10 102360 69
2003-03-24 14:56 51°19.927 2°53.921 12.8 334 9.9 102350 69
2003-03-24 14:57 51°19.774 2°53.8 12.5 334 9.8 102360 70
2003-03-24 14:58 51°19.622 2°53.676 13 335 9.8 102360 69
2003-03-24 14:59 51°19.471 2°53.551 12.9 336 9.8 102350 69
2003-03-24 15:00 51°19.321 2°53.422 13.7 333 9.9 102350 69
2003-03-24 15:01 51°19.173 2°53.289 13.5 334 9.9 102350 69
2003-03-24 15:02 51°19.027 2°53.159 12.9 332 9.9 102350 69
2003-03-24 15:03 51°18.88 2°53.036 13.4 333 9.9 102350 69
2003-03-24 15:04 51°18.727 2°52.926 12.9 330 9.9 102350 69
2003-03-24 15:05 51°18.575 2°52.813 12.8 330 9.9 102340 69
2003-03-24 15:06 51°18.42 2°52.712 12.4 326 10 102350 68
2003-03-24 15:07 51°18.259 2°52.638 12.4 322 10 102340 68
2003-03-24 15:08 51°18.089 2°52.599 12.5 320 9.9 102350 68
2003-03-24 15:09 51°17.92 2°52.565 13 320 10 102340 68
2003-03-24 15:10 51°17.755 2°52.53 13.8 322 10.2 102340 67
2003-03-24 15:11 51°17.579 2°52.531 14 315 10.3 102330 66
2003-03-24 15:12 51°17.41 2°52.537 12.5 319 10.4 102340 65
2003-03-24 15:13 51°17.241 2°52.547 12.5 315 10.4 102330 65
2003-03-24 15:14 51°17.073 2°52.582 12.9 303 10.5 102330 65
2003-03-24 15:15 51°16.908 2°52.683 11.6 297 10.5 102330 65
2003-03-24 15:16 51°16.749 2°52.8 11.6 298 10.5 102340 66
2003-03-24 15:17 51°16.592 2°52.946 9.5 284 10.4 102340 66
2003-03-24 15:18 51°16.447 2°53.128 8.3 288 10.4 102350 66
2003-03-24 15:19 51°16.301 2°53.305 6.9 285 10.4 102350 67
2003-03-24 15:20 51°16.177 2°53.532 7.5 268 10.3 102360 67
2003-03-24 15:21 51°16.091 2°53.803 4.9 280 10.3 102370 68
2003-03-24 15:22 51°16.003 2°54.076 5.8 262 10.3 102370 69
2003-03-24 15:23 51°15.913 2°54.345 6.3 270 10.3 102370 71
2003-03-24 15:24 51°15.797 2°54.572 7.1 301 10.3 102370 72
2003-03-24 15:25 51°15.647 2°54.682 8.5 301 10.1 102360 72
2003-03-24 15:26 51°15.538 2°54.76 7.3 295 10.1 102350 71
2003-03-24 15:27 51°15.448 2°54.807 8.5 300 10.1 102360 70
2003-03-24 15:28 51°15.347 2°54.852 8.4 292 10.2 102350 69
2003-03-24 15:29 51°15.233 2°54.924 8.9 302 10.2 102350 69
2003-03-24 15:30 51°15.125 2°54.982 7.2 326 10.3 102350 70
2003-03-24 15:31 51°15.038 2°55.021 6.4 338 10.1 102360 71
2003-03-24 15:32 51°14.958 2°55.049 7.6 322 10 102360 72
2003-03-24 15:33 51°14.853 2°55.039 8.9 333 9.9 102350 72
2003-03-24 15:34 51°14.728 2°55.026 7.1 343 9.9 102350 73
2003-03-24 15:35 51°14.64 2°55.024 6.6 324 9.8 102360 74
2003-03-24 15:36 51°14.566 2°55.05 5.9 330 9.8 102360 74
2003-03-24 15:37 51°14.48 2°55.062 7.7 345 9.8 102360 74
2003-03-24 15:38 51°14.357 2°55.098 6.7 305 9.8 102360 75
2003-03-24 15:39 51°14.289 2°55.211 5.9 271 9.8 102360 75
2003-03-24 15:40 51°14.244 2°55.3 5 270 9.9 102360 76
2003-03-24 15:41 51°14.196 2°55.366 8.4 273 10 102350 73
2003-03-24 15:42 51°14.142 2°55.417 3.1 280 10.6 102360 68
2003-03-24 15:43 51°14.083 2°55.459 5 314 11.1 102360 65
2003-03-24 15:44 51°14.024 2°55.504 4.4 302 11.7 102350 62
2003-03-24 15:45 51°13.964 2°55.543 3.6 310 12.2 102350 60
2003-03-24 15:46 51°13.899 2°55.585 4.1 322 12.5 102350 58
2003-03-24 15:47 51°13.833 2°55.628 4.5 273 12.9 102350 57
2003-03-24 15:48 51°13.772 2°55.676 1.9 300 13.1 102350 56
2003-03-24 15:49 51°13.721 2°55.743 3.1 261 13.2 102350 55
2003-03-24 15:50 51°13.682 2°55.827 2.8 289 13.4 102350 54
2003-03-24 15:51 51°13.65 2°55.917 1.9 323 13.5 102350 53
2003-03-24 15:52 51°13.623 2°55.991 2.2 192 13.6 102350 52
2003-03-24 15:53 51°13.61 2°56.057 2.4 253 13.7 102350 52
2003-03-24 15:54 51°13.603 2°56.091 4.2 225 13.8 102350 52
2003-03-24 15:55 51°13.6 2°56.1 5.4 218 13.8 102340 51
2003-03-24 15:56 51°13.601 2°56.101 5.8 214 13.9 102350 50
2003-03-24 15:57 51°13.601 2°56.102 8.2 222 13.9 102350 50
2003-03-24 15:58 51°13.601 2°56.102 4.2 244 13.9 102340 50
2003-03-24 15:59 51°13.6 2°56.103 6.8 221 14 102350 49
2003-03-24 16:00 51°13.6 2°56.103 5.9 240 14 102350 48
2003-03-24 16:01 51°13.601 2°56.103 3.1 239 14 102350 50
2003-03-24 16:02 51°13.601 2°56.103 3.5 226 14 102350 50
2003-03-24 16:03 51°13.6 2°56.103 4.4 247 14 102350 49